User: anonymous   Login
Location: Krasnoyarskiy Pitomnik
(51.1333°N, 71.6167°E)
Time: 04:49:57
(UTC+00:00)
Language:

Cosmos 1825 Rocket - Orbit

View from above orbital plane
View from above orbital plane
View from above satellite
View from above satellite

Ground track
Ground track

The orbit data is extracted from the following two-line orbital elements,

1 17567U 87024B   22017.56740767  .00000211  00000-0  22500-4 0  9998
2 17567  82.5278  70.7517 0018252 214.7805 145.2219 14.83850032863816
Epoch (UTC): 17 January 2022 13:37:04
Eccentricity: 0.0018252
inclination: 82.5278°
perigee height: 604 km
apogee height: 630 km
right ascension of ascending node: 70.7517°
argument of perigee: 214.7805°
revolutions per day: 14.83850032
mean anomaly at epoch: 145.2219°
orbit number at epoch: 86381

The dashed part of the orbit path shows where the satellite is in the earth's shadow,  

DLR